[[{"header":{"parameterUnit":"m.s-1","parameterCategory":1,"la1":30.2991,"la2":30.254,"lo1":-89.0895,"lo2":-89.0444,"dy":0.0017,"dx":0.0017,"nx":28,"ny":28,"refTime":"2024-05-12T03:00:00:Z","depth":0,"parameterNumber":2,"parameterNumberName":"U-component_of_WINDS"},"data":[0,0,0,0,0,0,0,0,0,0,0,0,0,0,0,0,0,0,0,0,0,0,0,0,0,0,0,0,0,0,0,0,0,0,0,0,0,0,0,0,0,0,0,0,0,0,0,0,0,0,0,0,0,0,0,0,0,0,-0.3906,-0.3907,0,-0.3939,-0.394,-0.394,-0.3978,-0.3979,-0.3979,-0.398,-0.4013,-0.4014,-0.4014,0,0,0,0,0,0,0,0,0,0,0,0,0,-0.3876,-0.3877,-0.3906,-0.3907,-0.3907,-0.3939,-0.394,-0.394,-0.3978,-0.3979,-0.398,-0.398,-0.4013,-0.4014,-0.4014,0,0,0,0,0,0,0,0,0,0,0,0,0,-0.3897,-0.3877,-0.3906,-0.393,-0.3932,-0.3939,-0.394,-0.394,-0.3978,-0.3979,-0.398,-0.3981,-0.4013,-0.4014,-0.4014,-0.4,0,0,-0.4016,-0.4016,0,0,0,0,0,0,0,0,-0.3896,-0.3898,-0.3926,-0.3928,-0.3931,-0.3956,-0.3942,-0.396,-0.3978,-0.3961,-0.398,-0.3981,-0.3993,-0.3996,-0.4,-0.4002,-0.4003,-0.4016,-0.4016,-0.4016,-0.4017,0,0,0,0,0,0,0,-0.3895,-0.3897,-0.3919,-0.3926,-0.3929,-0.3939,-0.3943,-0.3945,-0.3972,-0.3962,-0.3965,-0.3968,-0.3995,-0.3999,-0.4001,-0.4004,-0.4016,-0.4016,-0.4017,-0.4017,-0.3997,-0.3996,0,0,0,0,0,0,-0.389,-0.3896,-0.3918,-0.392,-0.3915,-0.3939,-0.3943,-0.3947,-0.3972,-0.3977,-0.3968,-0.397,-0.3998,-0.4,-0.4002,-0.3989,-0.4016,-0.4017,-0.4017,-0.3998,-0.3997,-0.3996,0,0,0,0,0,0,-0.3889,-0.3891,-0.3917,-0.3909,-0.3913,-0.3938,-0.3942,-0.3947,-0.3951,-0.3976,-0.3981,-0.3967,-0.3999,-0.4002,-0.4001,-0.399,-0.4017,-0.4018,-0.3999,-0.3998,-0.3996,-0.396,0,0,0,0,0,0,-0.3888,-0.3891,-0.3885,-0.3908,-0.3913,-0.3915,-0.3942,-0.3947,-0.3952,-0.3956,-0.3977,-0.3981,-0.4,-0.4,-0.4001,-0.3991,-0.4018,-0.4,-0.3998,-0.3997,-0.3962,-0.3958,-0.3954,0,0,0,0,0,-0.3886,-0.3874,-0.3885,-0.3888,-0.3907,-0.3914,-0.3917,-0.3938,-0.3951,-0.3946,-0.3962,-0.3981,-0.3991,-0.3999,-0.4001,-0.3991,-0.4001,-0.3999,-0.3997,-0.3964,-0.3959,-0.3954,0,0,0,0,0,0,-0.3848,-0.3877,-0.389,-0.3884,-0.3896,-0.392,-0.3915,-0.3931,-0.394,-0.3943,-0.3969,-0.3974,-0.397,-0.3981,-0.3989,-0.398,-0.3999,-0.3997,-0.3973,-0.3968,-0.3964,-0.3961,-0.4018,0,0,0,0,0,-0.3839,-0.3842,-0.3867,-0.386,-0.3865,-0.3889,-0.3893,-0.3908,-0.3922,-0.3927,-0.3943,-0.3956,-0.3962,-0.3965,-0.3973,-0.3964,-0.397,-0.3958,-0.3954,-0.395,-0.3949,-0.3946,-0.3942,-0.399,-0.399,-0.399,0,0,-0.382,-0.3837,-0.3837,-0.3852,-0.3864,-0.3867,-0.3893,-0.3895,-0.3897,-0.3927,-0.3928,-0.394,-0.3956,-0.3951,-0.395,-0.396,-0.3937,-0.3948,-0.3945,-0.3945,-0.3944,-0.3939,-0.3935,-0.3988,-0.3989,-0.3989,0,0,-0.3788,-0.38,-0.3796,-0.3807,-0.3824,-0.384,-0.3838,-0.386,-0.387,-0.387,-0.3894,-0.3897,-0.3907,-0.3918,-0.3924,-0.3897,-0.3914,-0.3898,-0.3876,-0.3873,-0.3869,-0.3866,-0.3857,-0.3853,-0.3897,-0.3896,-0.3896,0,-0.3762,-0.3768,-0.3791,-0.3792,-0.3798,-0.3826,-0.3822,-0.3832,-0.385,-0.3854,-0.3865,-0.3879,-0.3891,-0.389,-0.3883,-0.3888,-0.3888,-0.3896,-0.3868,-0.3865,-0.3862,-0.3854,-0.385,-0.3894,-0.3895,-0.3895,-0.3895,0,-0.3736,-0.3739,-0.3733,-0.3751,-0.3757,-0.3755,-0.3778,-0.3781,-0.3797,-0.3812,-0.3813,-0.3829,-0.384,-0.3841,-0.3856,-0.3842,-0.3848,-0.3863,-0.3882,-0.3855,-0.3848,-0.3845,-0.3892,-0.3892,-0.3893,-0.3893,0,0,-0.368,-0.3711,-0.3708,-0.3717,-0.3738,-0.3741,-0.3741,-0.3752,-0.3755,-0.3767,-0.3767,-0.3776,-0.379,-0.3798,-0.3814,-0.3811,-0.3789,-0.3827,-0.3828,-0.382,-0.3776,-0.3765,-0.3761,-0.3801,-0.38,-0.38,-0.3775,0,-0.3652,-0.3653,-0.3674,-0.367,-0.3673,-0.37,-0.37,-0.3713,-0.3727,-0.3733,-0.3748,-0.3754,-0.3772,-0.3777,-0.3776,-0.3792,-0.3781,-0.3794,-0.3802,-0.3802,-0.3798,-0.3757,-0.3745,-0.3721,-0.3773,-0.3772,-0.3772,0,-0.3619,-0.3629,-0.3625,-0.3647,-0.3649,-0.3649,-0.3661,-0.3666,-0.3682,-0.3692,-0.3701,-0.372,-0.3721,-0.3739,-0.3743,-0.3751,-0.3756,-0.3764,-0.3764,-0.3766,-0.3785,-0.3758,-0.3714,-0.3711,-0.3767,-0.3768,-0.3768,0,-0.3579,-0.3592,-0.3592,-0.3598,-0.3623,-0.3623,-0.3633,-0.365,-0.3655,-0.3666,-0.3671,-0.3681,-0.3687,-0.3696,-0.3717,-0.3728,-0.3718,-0.3737,-0.3727,-0.3726,-0.3724,-0.3724,-0.368,-0.3726,-0.3726,-0.3726,-0.3726,0,-0.3546,-0.3542,-0.3574,-0.3574,-0.3571,-0.3596,-0.3592,-0.3605,-0.362,-0.3623,-0.3647,-0.3649,-0.3677,-0.3683,-0.3699,-0.37,-0.3702,-0.3711,-0.3716,-0.3709,-0.3708,-0.3713,-0.3715,-0.3725,-0.3725,-0.3725,-0.3726,0,-0.3502,-0.3523,-0.3524,-0.3548,-0.3554,-0.3551,-0.3572,-0.3573,-0.3588,-0.3592,-0.3594,-0.3619,-0.3627,-0.3649,-0.3662,-0.3674,-0.367,-0.3678,-0.3664,-0.3667,-0.3656,-0.3657,-0.3614,-0.361,-0.3657,-0.3657,-0.3657,0,-0.3479,-0.3477,-0.3501,-0.3505,-0.3515,-0.352,-0.3526,-0.3551,-0.3556,-0.3574,-0.3573,-0.3583,-0.3592,-0.3604,-0.3623,-0.3634,-0.3643,-0.3627,-0.3644,-0.3638,-0.3643,-0.3643,-0.3644,-0.3623,-0.3622,-0.3622,-0.3621,0,-0.3437,-0.3448,-0.3456,-0.3467,-0.3474,-0.3484,-0.3496,-0.3498,-0.3525,-0.353,-0.3539,-0.3546,-0.356,-0.357,-0.3583,-0.3595,-0.3613,-0.3616,-0.3614,-0.3608,-0.36,-0.3605,-0.3654,-0.3617,-0.3617,-0.3618,-0.3618,-0.3618,-0.3404,-0.3404,-0.3421,-0.3429,-0.344,-0.3451,-0.3453,-0.3469,-0.3477,-0.349,-0.3504,-0.3511,-0.3528,-0.3548,-0.3558,-0.3564,-0.3574,-0.3571,-0.3571,-0.357,-0.3567,-0.3599,-0.3567,-0.3567,-0.3567,-0.3567,-0.3567,0,-0.3364,-0.3376,-0.3384,-0.3399,-0.3406,-0.3422,-0.3436,-0.3441,-0.3447,-0.346,-0.3469,-0.3479,-0.3489,-0.3509,-0.3521,-0.3522,-0.3531,-0.3524,-0.3525,-0.3527,-0.3557,-0.3558,-0.3517,-0.3517,-0.3517,-0.3517,-0.3517,-0.3517,-0.3344,-0.3345,-0.3358,-0.3365,-0.3377,-0.3384,-0.3391,-0.3401,-0.3412,-0.3422,-0.3431,-0.3444,-0.346,-0.3473,-0.3483,-0.3489,-0.3493,-0.3484,-0.3492,-0.352,-0.3525,-0.3529,-0.353,-0.3484,-0.3484,-0.3461,-0.3461,-0.3461]},{"header":{"parameterUnit":"m.s-1","parameterCategory":1,"la1":30.2991,"la2":30.254,"lo1":-89.0895,"lo2":-89.0444,"dy":0.0017,"dx":0.0017,"nx":28,"ny":28,"refTime":"2024-05-12T03:00:00:Z","depth":0,"parameterNumber":3,"parameterNumberName":"V-component_of_WINDS"},"data":[0,0,0,0,0,0,0,0,0,0,0,0,0,0,0,0,0,0,0,0,0,0,0,0,0,0,0,0,0,0,0,0,0,0,0,0,0,0,0,0,0,0,0,0,0,0,0,0,0,0,0,0,0,0,0,0,0,0,6.9412,6.9413,0,6.9466,6.9466,6.9467,6.9386,6.9383,6.9381,6.9378,6.9428,6.9432,6.9436,0,0,0,0,0,0,0,0,0,0,0,0,0,6.9234,6.9238,6.9412,6.9413,6.9413,6.9465,6.9466,6.9467,6.9387,6.9383,6.938,6.9377,6.9427,6.9431,6.9436,0,0,0,0,0,0,0,0,0,0,0,0,0,6.9302,6.9239,6.9412,6.938,6.9377,6.9465,6.9466,6.9467,6.9387,6.9383,6.9379,6.9375,6.9425,6.9431,6.9437,6.9557,0,0,6.9455,6.9457,0,0,0,0,0,0,0,0,6.9298,6.9309,6.9384,6.9382,6.938,6.9415,6.9422,6.9497,6.9388,6.9383,6.9378,6.9373,6.9427,6.9432,6.9451,6.956,6.9562,6.9455,6.9459,6.9462,6.9463,0,0,0,0,0,0,0,6.9294,6.9306,6.9433,6.9385,6.9382,6.9361,6.9366,6.9436,6.9428,6.9384,6.9378,6.9386,6.9425,6.9446,6.9452,6.9563,6.9455,6.9461,6.9464,6.9466,6.977,6.9775,0,0,0,0,0,0,6.9294,6.9302,6.9431,6.9435,6.9328,6.9367,6.9373,6.9408,6.9427,6.9426,6.9389,6.9382,6.9438,6.9445,6.9453,6.9595,6.9461,6.9467,6.947,6.9766,6.9771,6.9776,0,0,0,0,0,0,6.929,6.9306,6.9429,6.9367,6.9381,6.9375,6.9415,6.9411,6.9432,6.9431,6.9429,6.9413,6.9435,6.9445,6.9532,6.9595,6.947,6.9475,6.9761,6.9768,6.9774,6.9879,0,0,0,0,0,0,6.9285,6.9305,6.9352,6.9369,6.9385,6.9509,6.9419,6.9415,6.9443,6.9434,6.9453,6.9451,6.9432,6.9524,6.9538,6.9601,6.948,6.9755,6.9764,6.9772,6.987,6.9889,6.9905,0,0,0,0,0,6.9279,6.9379,6.9355,6.9371,6.9444,6.9513,6.9522,6.9499,6.9449,6.9495,6.9494,6.9451,6.9586,6.9533,6.9549,6.9615,6.9751,6.9761,6.9771,6.9862,6.9885,6.9904,0,0,0,0,0,0,6.9369,6.9381,6.9354,6.9463,6.9488,6.9499,6.9557,6.9524,6.9562,6.9552,6.9521,6.9525,6.9619,6.9625,6.9566,6.9731,6.966,6.9674,6.9724,6.9746,6.9763,6.9759,6.9485,0,0,0,0,0,6.9402,6.9459,6.9465,6.956,6.9574,6.9564,6.9593,6.9573,6.9597,6.9606,6.9612,6.9635,6.9682,6.9714,6.9758,6.9871,6.9873,6.9923,6.9941,6.9955,6.9967,7.0026,7.0048,6.981,6.981,6.981,0,0,6.9469,6.9483,6.952,6.9578,6.9595,6.9653,6.9573,6.9637,6.9679,6.9615,6.9698,6.9703,6.9726,6.9827,6.9871,6.9835,7.0033,6.9968,6.998,6.9984,7.0038,7.0061,7.0081,6.9817,6.9815,6.9814,0,0,6.9622,6.9638,6.9719,6.9738,6.9764,6.9757,6.9776,6.9793,6.9794,6.9877,6.983,6.9878,6.9961,6.9979,7.0,7.0158,7.0119,7.0173,7.0264,7.0321,7.034,7.0356,7.0412,7.0432,7.0185,7.0185,7.0186,0,6.9702,6.9789,6.9764,6.9832,6.9858,6.9804,6.9884,6.9903,6.9942,6.9961,6.992,7.0023,7.0035,7.0138,7.0176,7.0195,7.0215,7.0171,7.0339,7.0356,7.0371,7.0423,7.0444,7.0192,7.0191,7.019,7.019,0,6.9885,6.9946,7.0007,7.0048,7.0081,7.0154,7.0139,7.0175,7.0152,7.0148,7.0232,7.0245,7.029,7.0313,7.0291,7.0412,7.0389,7.0345,7.0272,7.04,7.0449,7.0469,7.0201,7.0198,7.0197,7.0195,0,0,7.0096,7.0122,7.0145,7.0162,7.0187,7.0233,7.0303,7.0348,7.0379,7.0407,7.0464,7.0536,7.0494,7.0517,7.0497,7.0547,7.0671,7.0496,7.0496,7.0528,7.0804,7.0837,7.086,7.0645,7.0649,7.0652,7.0801,0,7.0247,7.0371,7.035,7.0468,7.0523,7.0472,7.0533,7.0554,7.0552,7.0596,7.0593,7.0644,7.0586,7.06,7.0648,7.0646,7.0725,7.0635,7.0696,7.0699,7.0692,7.0886,7.0921,7.1062,7.082,7.0824,7.0826,0,7.0441,7.0478,7.0602,7.0618,7.064,7.0695,7.0734,7.0778,7.08,7.0795,7.0821,7.079,7.0858,7.0785,7.0877,7.0816,7.0839,7.0842,7.0847,7.0851,7.077,7.0895,7.1106,7.1127,7.0856,7.0853,7.0851,0,7.0581,7.0661,7.0746,7.0762,7.0783,7.0823,7.0833,7.0851,7.0879,7.0913,7.093,7.0971,7.0993,7.1024,7.1005,7.0954,7.11,7.1025,7.1096,7.1097,7.1129,7.1127,7.1346,7.1146,7.1145,7.1145,7.1144,0,7.0752,7.083,7.0809,7.0861,7.0946,7.0921,7.1005,7.1009,7.1025,7.1075,7.1033,7.1081,7.1053,7.1098,7.1083,7.1161,7.1171,7.1168,7.1163,7.1172,7.1172,7.1186,7.1176,7.115,7.1149,7.1148,7.1147,0,7.0923,7.0913,7.1001,7.1014,7.1018,7.1081,7.109,7.1137,7.1132,7.1196,7.121,7.1201,7.1251,7.1235,7.129,7.1279,7.1378,7.1361,7.1371,7.1367,7.1438,7.1431,7.1674,7.1703,7.1484,7.1486,7.1488,0,7.1032,7.1091,7.111,7.1142,7.1155,7.1206,7.1235,7.1211,7.1242,7.1271,7.1315,7.1362,7.1399,7.1482,7.1479,7.152,7.1503,7.1585,7.1509,7.1515,7.1503,7.15,7.1505,7.16,7.1603,7.1605,7.1606,0,7.1228,7.1219,7.1263,7.1306,7.1341,7.1373,7.14,7.1428,7.1405,7.1442,7.1494,7.1523,7.1579,7.1625,7.1662,7.167,7.1635,7.1631,7.1649,7.1658,7.1661,7.166,7.1412,7.1625,7.1623,7.1622,7.1621,7.162,7.1371,7.142,7.1441,7.1491,7.1509,7.1536,7.1581,7.1581,7.1625,7.1669,7.1652,7.1711,7.173,7.1776,7.1789,7.1834,7.1802,7.1829,7.1836,7.1843,7.1851,7.1655,7.1841,7.184,7.184,7.1839,7.1839,0,7.1563,7.1574,7.162,7.166,7.1699,7.1663,7.1691,7.1725,7.1779,7.18,7.1837,7.1896,7.1941,7.1942,7.1983,7.2019,7.2003,7.203,7.2027,7.2029,7.1878,7.1858,7.2042,7.2042,7.2042,7.2042,7.2042,7.2042,7.1668,7.175,7.1744,7.1833,7.1842,7.1902,7.1921,7.1944,7.1961,7.2029,7.2067,7.2067,7.208,7.2121,7.2161,7.2159,7.2176,7.221,7.2202,7.206,7.204,7.2021,7.2002,7.2214,7.2214,7.235,7.2351,7.2352]}]]